Weather History for Mobridge, SD

Change the Weather History Date:

Thursday, February 14, 2013

  Actual Average Record
Temperature  
Mean Temperature 28 °F 20 °F  
Max Temperature 36 °F 31 °F 66 °F (1954)
Min Temperature 20 °F 10 °F -34 °F (1936)
Degree Days  
Heating Degree Days 37 45  
Month to date heating degree days 543 648  
Since 1 July heating degree days 5228 5381  
Cooling Degree Days 0 0  
Month to date cooling degree days 0 0  
Year to date cooling degree days 0 0  
Moisture  
Dew Point 20 °F    
Average Humidity 73    
Maximum Humidity 85    
Minimum Humidity 61    
Precipitation  
Precipitation 0.01 in 0.02 in 0.47 in (1935)
Month to date precipitation 0.24 0.20  
Year to date precipitation 0.84 0.49  
Snow  
Snow 0.00 in - - ()
Month to date snowfall 3.4  
Since 1 July snowfall 23.2  
Snow Depth T in    
Sea Level Pressure  
Sea Level Pressure 30.08 in    
Wind  
Wind Speed 15 mph (NNW)    
Max Wind Speed 35 mph    
Max Gust Speed 47 mph    
Visibility 8 miles    
Events Snow    
T = Trace of Precipitation, MM = Missing Value Source: NWS Daily Summary

Daily Weather History Graph

Daily Weather History Graph

Search for Another Location

Airport:

Trip Planner

Search our weather history database for the weather conditions in past years. The results will help you decide how hot, cold, wet, or windy it might be!

Date:

Astronomy

Feb. 14, 2013 Rise Set
Actual Time 7:44 AM CST 6:07 PM CST
Civil Twilight 7:14 AM CST 6:38 PM CST
Nautical Twilight 6:39 AM CST 7:13 PM CST
Astronomical Twilight 6:05 AM CST 7:47 PM CST
Moon 9:30 AM CST (2/14) 11:30 PM CST (2/14)
Length of Visible Light 11h 24m
Length of Day
10h 23m
Waxing Crescent, 22% of the Moon is Illuminated
Feb 14
Waxing Crescent
Feb 17
First Quarter
Feb 25
Full
Mar 4
Last Quarter
Mar 11
New

Hourly Weather History & Observations

Time (CST) Temp. Windchill Dew Point Humidity Pressure Visibility Wind Dir Wind Speed Gust Speed Precip Events Conditions
12:09 AM 32.0 °F - 28.4 °F 87% 29.79 in 9.0 mi Calm Calm - 0.00 in   Overcast
12:52 AM 33.1 °F 30.0 °F 30.9 °F 92% 29.83 in 10.0 mi WNW 3.5 mph - 0.00 in   Overcast
1:52 AM 35.1 °F 24.1 °F 28.0 °F 76% 29.83 in 10.0 mi NW 19.6 mph 24.2 mph N/A   Mostly Cloudy
2:52 AM 33.1 °F 21.2 °F 21.0 °F 61% 29.85 in 10.0 mi NW 20.7 mph 29.9 mph N/A   Clear
3:52 AM 30.9 °F 20.7 °F 21.9 °F 69% 29.85 in 10.0 mi NW 13.8 mph - N/A   Mostly Cloudy
4:52 AM 32.0 °F 19.5 °F 23.0 °F 69% 29.85 in 10.0 mi NW 21.9 mph 25.3 mph N/A   Overcast
5:52 AM 33.1 °F 21.5 °F 24.1 °F 70% 29.87 in 10.0 mi NW 19.6 mph 27.6 mph N/A   Overcast
6:35 AM 33.8 °F 22.8 °F 24.8 °F 70% 29.84 in 10.0 mi NW 18.4 mph 28.8 mph N/A   Overcast
6:52 AM 32.0 °F 20.1 °F 25.0 °F 75% 29.89 in 10.0 mi NW 19.6 mph 28.8 mph N/A   Overcast
7:48 AM 30.2 °F 19.8 °F 26.6 °F 86% 29.86 in 9.0 mi NW 13.8 mph - 0.00 in Snow Light Snow
7:52 AM 30.9 °F 20.2 °F 26.1 °F 82% 29.92 in 9.0 mi NW 15.0 mph - 0.00 in   Overcast
8:52 AM 32.0 °F 21.6 °F 26.1 °F 79% 29.94 in 10.0 mi NW 15.0 mph 23.0 mph N/A   Overcast
9:52 AM 32.0 °F 20.1 °F 26.1 °F 79% 29.96 in 10.0 mi NNW 19.6 mph 28.8 mph N/A   Overcast
10:06 AM 24.8 °F 8.7 °F 19.4 °F 80% 29.94 in 1.8 mi NNE 26.5 mph 43.7 mph 0.00 in Snow Light Snow
10:20 AM 24.8 °F 9.3 °F 19.4 °F 80% 29.98 in 1.5 mi NNE 24.2 mph 38.0 mph 0.00 in Snow Light Snow
10:31 AM 23.0 °F 6.3 °F 17.6 °F 80% 30.01 in 0.8 mi NNE 26.5 mph 34.5 mph 0.00 in Snow Light Snow
10:47 AM 23.0 °F 7.2 °F 17.6 °F 80% 30.03 in 1.2 mi NNE 23.0 mph 33.4 mph 0.00 in Snow Light Snow
10:52 AM 23.0 °F 6.9 °F 18.0 °F 81% 30.11 in 1.0 mi North 24.2 mph 32.2 mph 0.00 in Snow Light Snow
11:52 AM 23.0 °F 7.2 °F 17.1 °F 78% 30.19 in 1.8 mi North 23.0 mph 29.9 mph 0.00 in Snow Light Snow
12:02 PM 23.0 °F 8.7 °F 17.6 °F 80% 30.13 in 3.0 mi North 18.4 mph 24.2 mph 0.01 in Snow Light Snow
12:22 PM 21.2 °F 6.0 °F 17.6 °F 86% 30.14 in 1.8 mi NNW 19.6 mph 27.6 mph 0.01 in Snow Light Snow
12:29 PM 21.2 °F 5.6 °F 15.8 °F 80% 30.15 in 3.0 mi North 20.7 mph 27.6 mph 0.01 in Snow Light Snow
12:52 PM 23.0 °F 8.3 °F 16.0 °F 74% 30.23 in 10.0 mi North 19.6 mph 26.5 mph 0.01 in   Overcast
1:52 PM 24.1 °F 10.1 °F 16.0 °F 71% 30.23 in 10.0 mi North 18.4 mph 25.3 mph 0.00 in   Overcast
2:52 PM 25.0 °F 12.6 °F 16.0 °F 69% 30.25 in 10.0 mi NNW 15.0 mph 23.0 mph N/A   Overcast
3:52 PM 25.0 °F 10.6 °F 15.1 °F 66% 30.27 in 10.0 mi NNW 20.7 mph 25.3 mph N/A   Overcast
4:34 PM 26.6 °F 14.7 °F 15.8 °F 64% 30.21 in 10.0 mi NW 15.0 mph 20.7 mph N/A   Overcast
4:52 PM 26.1 °F 13.1 °F 16.0 °F 66% 30.28 in 10.0 mi NW 17.3 mph 24.2 mph N/A   Overcast
5:04 PM 26.6 °F 14.7 °F 17.6 °F 69% 30.21 in 10.0 mi NW 15.0 mph - N/A   Overcast
5:25 PM 26.6 °F 14.3 °F 15.8 °F 64% 30.21 in 10.0 mi NW 16.1 mph 25.3 mph N/A   Overcast
5:52 PM 26.1 °F 15.0 °F 15.1 °F 63% 30.28 in 10.0 mi NNW 12.7 mph 21.9 mph N/A   Overcast
6:52 PM 25.0 °F 12.6 °F 15.1 °F 66% 30.30 in 10.0 mi NNW 15.0 mph 27.6 mph N/A   Overcast
7:52 PM 23.0 °F 11.1 °F 14.0 °F 68% 30.32 in 10.0 mi NW 12.7 mph - N/A   Overcast
8:52 PM 23.0 °F 11.7 °F 14.0 °F 68% 30.30 in 10.0 mi North 11.5 mph - N/A   Overcast
9:52 PM 21.9 °F 15.7 °F 15.1 °F 75% 30.31 in 10.0 mi NW 4.6 mph - N/A   Overcast
10:52 PM 21.0 °F - 16.0 °F 81% 30.32 in 10.0 mi Calm Calm - N/A   Overcast
11:52 PM 21.9 °F 17.2 °F 16.0 °F 78% 30.31 in 10.0 mi WNW 3.5 mph - N/A   Overcast